Location: Lecco
(45.8566°N, 9.3977°E)
Time: 22:28:27
(UTC+02:00)

deb Explorer IX - All Passes

Search period start: 22 July 2019 00:00
Search period end: 01 August 2019 00:00
Orbit: 539 x 1112 km, 38.8° (Epoch: 21 July)

Date Brightness Start Highest point End Pass type
(mag) Time Alt. Az. Time Alt. Az. Time Alt. Az.
22 Jul - 02:43:34 10° S 02:46:00 15° SSE 02:48:19 10° ESE visible
22 Jul - 04:28:30 10° SW 04:32:06 28° S 04:35:36 10° ESE visible
22 Jul - 06:14:50 10° WSW 06:18:19 27° S 06:21:51 10° SE daylight
22 Jul - 08:02:19 10° SW 08:04:24 14° SSW 08:06:32 10° S daylight
23 Jul - 02:21:30 10° SSW 02:24:08 15° SSE 02:26:39 10° ESE visible
23 Jul - 04:06:35 10° SW 04:10:17 29° S 04:13:48 10° ESE visible
23 Jul - 05:53:00 10° WSW 05:56:30 27° S 05:59:59 10° SE daylight
23 Jul - 07:40:38 10° SW 07:42:33 13° SSW 07:44:29 10° S daylight
24 Jul - 01:59:24 10° SSW 02:02:16 16° SSE 02:04:59 10° ESE visible
24 Jul - 03:44:38 10° SW 03:48:27 29° S 03:52:01 10° ESE visible
24 Jul - 05:31:09 10° WSW 05:34:40 27° S 05:38:07 10° SE daylight
24 Jul - 07:18:57 10° SW 07:20:41 12° SSW 07:22:26 10° S daylight
25 Jul - 01:37:16 10° SSW 01:40:24 17° SSE 01:43:19 10° ESE night (unlit)
25 Jul - 03:22:41 10° SW 03:26:37 30° S 03:30:15 10° ESE visible
25 Jul - 05:09:17 10° WSW 05:12:51 27° S 05:16:17 10° SE visible
25 Jul - 06:57:15 10° SW 06:58:50 12° SSW 07:00:26 10° S daylight
26 Jul - 01:15:08 10° SSW 01:18:32 18° SSE 01:21:38 10° ESE night (unlit)
26 Jul - 03:00:42 10° WSW 03:04:46 31° S 03:08:30 10° ESE visible
26 Jul - 04:47:23 10° WSW 04:51:01 27° SSW 04:54:28 10° SE visible
26 Jul - 06:35:31 10° SW 06:36:59 12° SSW 06:38:26 10° S daylight
27 Jul - 00:53:00 10° SSW 00:56:38 19° SSE 00:59:57 10° ESE night (unlit)
27 Jul - 02:38:41 10° WSW 02:42:56 32° S 02:46:44 10° ESE visible
27 Jul - 04:25:27 10° WSW 04:29:11 27° SSW 04:32:39 10° SE visible
27 Jul - 06:13:45 10° SW 06:15:07 11° SSW 06:16:29 10° S daylight
28 Jul - 00:30:50 10° SSW 00:34:44 21° SSE 00:38:16 10° ESE night (unlit)
28 Jul - 02:16:39 10° WSW 02:21:04 33° S 02:24:59 10° ESE visible
28 Jul - 04:03:30 10° WSW 04:07:19 28° SSW 04:10:53 10° SE visible
28 Jul - 05:51:56 10° SW 05:53:15 11° SSW 05:54:33 10° S daylight
29 Jul - 00:08:40 10° SSW 00:12:50 22° SSE 00:16:34 10° ESE night (unlit)
29 Jul - 01:54:35 10° WSW 01:59:12 34° S 02:03:14 10° ESE night (unlit)
29 Jul - 03:41:32 10° WSW 03:45:29 28° SSW 03:49:06 10° SE visible
29 Jul - 05:30:04 10° SW 05:31:23 11° SSW 05:32:41 10° SSW visible
29 Jul - 23:46:29 10° SSW 23:50:55 23° SSE 23:54:50 10° ESE visible
30 Jul - 01:32:31 10° WSW 01:37:19 35° S 01:41:29 10° ESE night (unlit)
30 Jul - 03:19:31 10° WSW 03:23:37 29° SSW 03:27:19 10° SE visible
30 Jul - 05:08:09 10° SW 05:09:30 11° SSW 05:10:51 10° SSW visible
30 Jul - 23:24:17 10° SSW 23:28:58 24° SSE 23:33:07 10° ESE visible
31 Jul - 01:10:25 10° WSW 01:15:25 36° S 01:19:44 10° ESE night (unlit)
31 Jul - 02:57:30 10° WSW 03:01:45 29° SSW 03:05:33 10° SE night (unlit)
31 Jul - 04:46:11 10° SW 04:47:38 11° SSW 04:49:02 10° SSW visible
31 Jul - 23:02:06 10° SW 23:07:01 25° SSE 23:11:23 10° ESE visible
